< < Back
Terminal Aerodrome Forecast


Current Version              Previous Versions:   1  2  3  4  5  6  7  8  9  

Terminal Aerodrome Forecast

312
FTUS44 KBMX 251100
TAFMGM
TAF
KMGM 251120Z 2512/2612 20006KT P6SM SCT250
     FM251800 21010G18KT P6SM SCT040 BKN120
     FM260300 24006KT P6SM OVC100
     FM260600 28008KT P6SM OVC050=

Latest METAR

203
SAUS80 KWBC 252200
MTRMGM
METAR KMGM 252153Z 20011G23KT 10SM CLR 17/02 A2978 RMK AO2 SLP083
T01720017


USA.gov is the U.S. government's official web portal to all federal, state and local government web resources and services.